User: anonymous   Login
Location: Cluny
(50.9333°N, 112.8167°W)
Time: 01:35:48
(UTC-07:00)
Language:

Cosmos 1743 Rocket - Orbit

View from above orbital plane
View from above orbital plane
View from above satellite
View from above satellite

Ground track
Ground track

The orbit data is extracted from the following two-line orbital elements,

1 16720U 86034B   14326.77045031  .00000445  00000-0  51940-4 0  6162
2 16720 082.5554 035.2747 0019071 315.6195 184.1921 14.82879405540310
Epoch (UTC): 22 November 2014 18:29:26
Eccentricity: 0.0019071
inclination: 82.5554°
perigee height: 607 km
apogee height: 633 km
right ascension of ascending node: 35.2747°
argument of perigee: 315.6195°
revolutions per day: 14.82879405
mean anomaly at epoch: 184.1921°
orbit number at epoch: 54031

The dashed part of the orbit path shows where the satellite is in the earth's shadow,  

DLR